| time (UTC) | temp F | wind direction | speed MPH | gust MPH | rain 1hr in | rain 24hr in | rain mn in | humidity % | barometer mb |
| 20260504185211 | 70 | 201 | 4.0 | 9.0 | 0.00 | 0.00 | 0.00 | 48 | 1013.4 |
| 20260504184707 | 69 | 261 | 5.0 | 7.0 | 0.00 | 0.00 | 0.00 | 45 | 1013.6 |
| 20260504184202 | 70 | 174 | 4.0 | 7.0 | 0.00 | 0.00 | 0.00 | 45 | 1014.1 |
| 20260504183659 | 69 | 282 | 10.0 | 11.0 | 0.00 | 0.00 | 0.00 | 45 | 1014.0 |
| 20260504183156 | 69 | 270 | 9.0 | 14.0 | 0.00 | 0.00 | 0.00 | 45 | 1014.0 |
| 20260504182654 | 69 | 261 | 4.0 | 7.0 | 0.00 | 0.00 | 0.00 | 47 | 1014.0 |
| 20260504182151 | 69 | 261 | 10.0 | 13.0 | 0.00 | 0.00 | 0.00 | 45 | 1014.2 |
| 20260504181649 | 69 | 172 | 2.0 | 3.0 | 0.00 | 0.00 | 0.00 | 49 | 1014.3 |
| 20260504181146 | 69 | 138 | 7.0 | 9.0 | 0.00 | 0.00 | 0.00 | 47 | 1014.3 |
| 20260504180645 | 68 | 287 | 6.0 | 10.0 | 0.00 | 0.00 | 0.00 | 50 | 1014.3 |
| 20260504180143 | 67 | 161 | 3.0 | 8.0 | 0.00 | 0.00 | 0.00 | 49 | 1014.3 |
| 20260504175640 | 67 | 246 | 4.0 | 7.0 | 0.00 | 0.00 | 0.00 | 53 | 1014.3 |
| 20260504175137 | 68 | 272 | 3.0 | 7.0 | 0.00 | 0.00 | 0.00 | 51 | 1014.2 |
| 20260504174635 | 67 | 239 | 4.0 | 6.0 | 0.00 | 0.00 | 0.00 | 50 | 1014.4 |
| 20260504174131 | 66 | 153 | 3.0 | 8.0 | 0.00 | 0.00 | 0.00 | 53 | 1014.4 |
| 20260504173629 | 66 | 184 | 6.0 | 14.0 | 0.00 | 0.00 | 0.00 | 53 | 1014.7 |
| 20260504173126 | 66 | 230 | 4.0 | 8.0 | 0.00 | 0.00 | 0.00 | 51 | 1014.7 |
| 20260504172622 | 65 | 220 | 4.0 | 9.0 | 0.00 | 0.00 | 0.00 | 55 | 1014.7 |
| 20260504172119 | 65 | 215 | 4.0 | 6.0 | 0.00 | 0.00 | 0.00 | 51 | 1014.8 |
| 20260504171615 | 66 | 295 | 5.0 | 10.0 | 0.00 | 0.00 | 0.00 | 52 | 1014.7 |
| 20260504171113 | 65 | 259 | 4.0 | 8.0 | 0.00 | 0.00 | 0.00 | 55 | 1015.2 |
| 20260504170608 | 66 | 155 | 2.0 | 7.0 | 0.00 | 0.00 | 0.00 | 52 | 1015.0 |
| 20260504170107 | 65 | 256 | 3.0 | 9.0 | 0.00 | 0.00 | 0.00 | 52 | 1015.1 |
| 20260504150952 | 63 | 294 | 7.0 | 10.0 | 0.00 | 0.00 | 0.00 | 47 | 1016.3 |
| 20260504150449 | 63 | 282 | 9.0 | 13.0 | 0.00 | 0.00 | 0.00 | 46 | 1016.3 |
| 20260504140915 | 60 | 267 | 7.0 | 11.0 | 0.00 | 0.00 | 0.00 | 47 | 1016.1 |
| 20260504140411 | 61 | 248 | 11.0 | 15.0 | 0.00 | 0.00 | 0.00 | 48 | 1016.1 |
| 20260504130336 | 57 | 266 | 3.0 | 3.0 | 0.00 | 0.00 | 0.00 | 54 | 1016.2 |
| 20260504120300 | 49 | 144 | 2.0 | 3.0 | 0.00 | 0.00 | 0.00 | 73 | 1016.7 |
| 20260504110224 | 41 | 232 | 0.0 | 0.0 | 0.00 | 0.00 | 0.00 | 89 | 1016.9 |
| 20260504100148 | 44 | 262 | 0.0 | 0.0 | 0.00 | 0.00 | 0.00 | 83 | 1017.1 |
| 20260504090110 | 47 | 215 | 0.0 | 1.0 | 0.00 | 0.00 | 0.00 | 75 | 1017.0 |
| 20260504081540 | 47 | 267 | 0.0 | 4.0 | 0.00 | 0.00 | 0.00 | 73 | 1017.1 |
| 20260504081036 | 47 | 278 | 4.0 | 4.0 | 0.00 | 0.00 | 0.00 | 69 | 1017.4 |
| 20260504080533 | 47 | 278 | 4.0 | 4.0 | 0.00 | 0.00 | 0.00 | 69 | 1017.4 |
| 20260504050346 | 44 | 250 | 0.0 | 0.0 | 0.00 | 0.00 | 0.00 | 73 | 1017.9 |
| 20260504045838 | 44 | 248 | 0.0 | 0.0 | 0.00 | 0.00 | 0.00 | 70 | 1017.9 |
| 20260504045338 | 45 | 246 | 0.0 | 0.0 | 0.00 | 0.00 | 0.00 | 67 | 1017.9 |
| 20260504044835 | 45 | 234 | 0.0 | 0.0 | 0.00 | 0.00 | 0.00 | 65 | 1017.6 |
| 20260504044332 | 45 | 231 | 0.0 | 0.0 | 0.00 | 0.00 | 0.00 | 64 | 1017.8 |
| 20260504043830 | 45 | 250 | 0.0 | 0.0 | 0.00 | 0.00 | 0.00 | 66 | 1017.8 |
| 20260504043326 | 44 | 224 | 0.0 | 0.0 | 0.00 | 0.00 | 0.00 | 67 | 1017.7 |
| 20260504042824 | 44 | 237 | 0.0 | 0.0 | 0.00 | 0.00 | 0.00 | 71 | 1017.8 |
| 20260504042320 | 44 | 236 | 0.0 | 0.0 | 0.00 | 0.00 | 0.00 | 73 | 1017.7 |
| 20260504041816 | 44 | 224 | 0.0 | 0.0 | 0.00 | 0.00 | 0.00 | 77 | 1017.7 |
| 20260504041312 | 44 | 224 | 0.0 | 0.0 | 0.00 | 0.00 | 0.00 | 80 | 1017.8 |
| 20260504040809 | 44 | 213 | 0.0 | 0.0 | 0.00 | 0.00 | 0.00 | 81 | 1017.8 |
| 20260504040306 | 44 | 214 | 0.0 | 0.0 | 0.00 | 0.00 | 0.00 | 76 | 1017.8 |
| 20260504035802 | 44 | 217 | 0.0 | 0.0 | 0.00 | 0.00 | 0.00 | 75 | 1017.9 |
| 20260504035259 | 44 | 217 | 0.0 | 0.0 | 0.00 | 0.00 | 0.00 | 75 | 1017.8 |
| 20260504034756 | 44 | 218 | 0.0 | 0.0 | 0.00 | 0.00 | 0.00 | 78 | 1017.8 |
| 20260504034254 | 44 | 217 | 0.0 | 0.0 | 0.00 | 0.00 | 0.00 | 75 | 1017.8 |
| 20260504033751 | 43 | 217 | 0.0 | 0.0 | 0.00 | 0.00 | 0.00 | 76 | 1017.9 |
| 20260504033249 | 43 | 218 | 0.0 | 0.0 | 0.00 | 0.00 | 0.00 | 76 | 1017.7 |
| 20260504032745 | 43 | 218 | 0.0 | 0.0 | 0.00 | 0.00 | 0.00 | 79 | 1017.8 |
| 20260504032242 | 43 | 224 | 0.0 | 0.0 | 0.00 | 0.00 | 0.00 | 76 | 1017.7 |
| 20260504031739 | 43 | 224 | 0.0 | 0.0 | 0.00 | 0.00 | 0.00 | 76 | 1018.0 |
| 20260504031237 | 44 | 224 | 0.0 | 0.0 | 0.00 | 0.00 | 0.00 | 72 | 1018.0 |
| 20260504030732 | 44 | 224 | 0.0 | 0.0 | 0.00 | 0.00 | 0.00 | 70 | 1017.8 |
| 20260504030230 | 44 | 224 | 0.0 | 0.0 | 0.00 | 0.00 | 0.00 | 71 | 1017.9 |
| 20260504025726 | 44 | 224 | 0.0 | 0.0 | 0.00 | 0.00 | 0.00 | 70 | 1017.8 |
| 20260504025223 | 45 | 224 | 0.0 | 0.0 | 0.00 | 0.00 | 0.00 | 71 | 1017.8 |
| 20260504024720 | 45 | 224 | 0.0 | 0.0 | 0.00 | 0.00 | 0.00 | 69 | 1018.0 |
| 20260504024217 | 46 | 224 | 0.0 | 0.0 | 0.00 | 0.00 | 0.00 | 67 | 1017.9 |
| 20260504023714 | 46 | 224 | 0.0 | 0.0 | 0.00 | 0.00 | 0.00 | 65 | 1017.8 |
| 20260504023209 | 46 | 224 | 0.0 | 0.0 | 0.00 | 0.00 | 0.00 | 66 | 1018.0 |
| 20260504022706 | 46 | 224 | 0.0 | 0.0 | 0.00 | 0.00 | 0.00 | 65 | 1018.0 |
| 20260504022202 | 46 | 241 | 0.0 | 0.0 | 0.00 | 0.00 | 0.00 | 64 | 1018.1 |
| 20260504021700 | 46 | 241 | 0.0 | 0.0 | 0.00 | 0.00 | 0.00 | 63 | 1018.1 |
| 20260504021156 | 46 | 243 | 0.0 | 0.0 | 0.00 | 0.00 | 0.00 | 64 | 1018.0 |
| 20260504020653 | 46 | 249 | 0.0 | 0.0 | 0.00 | 0.00 | 0.00 | 65 | 1018.1 |
| 20260504020149 | 46 | 249 | 0.0 | 0.0 | 0.00 | 0.00 | 0.00 | 65 | 1018.1 |
| 20260504015646 | 46 | 254 | 0.0 | 0.0 | 0.00 | 0.00 | 0.00 | 64 | 1018.0 |
| 20260504015142 | 46 | 253 | 0.0 | 0.0 | 0.00 | 0.00 | 0.00 | 62 | 1017.9 |
| 20260504014638 | 46 | 236 | 0.0 | 0.0 | 0.00 | 0.00 | 0.00 | 66 | 1018.0 |
| 20260504014136 | 46 | 235 | 0.0 | 0.0 | 0.00 | 0.00 | 0.00 | 63 | 1018.0 |
| 20260504013633 | 46 | 245 | 0.0 | 0.0 | 0.00 | 0.00 | 0.00 | 65 | 1017.9 |
| 20260504013130 | 46 | 245 | 0.0 | 0.0 | 0.00 | 0.00 | 0.00 | 62 | 1018.1 |
| 20260504012627 | 46 | 235 | 0.0 | 0.0 | 0.00 | 0.00 | 0.00 | 63 | 1017.8 |
| 20260504012125 | 46 | 239 | 0.0 | 0.0 | 0.00 | 0.00 | 0.00 | 61 | 1018.0 |
| 20260504011621 | 46 | 232 | 0.0 | 0.0 | 0.00 | 0.00 | 0.00 | 61 | 1017.6 |
| 20260504011118 | 46 | 206 | 0.0 | 0.0 | 0.00 | 0.00 | 0.00 | 61 | 1017.6 |
| 20260504010614 | 47 | 214 | 0.0 | 0.0 | 0.00 | 0.00 | 0.00 | 60 | 1017.6 |
| 20260504010110 | 46 | 265 | 0.0 | 0.0 | 0.00 | 0.00 | 0.00 | 58 | 1017.7 |
| 20260504005607 | 46 | 242 | 0.0 | 0.0 | 0.00 | 0.00 | 0.00 | 60 | 1017.5 |
| 20260504005104 | 46 | 256 | 0.0 | 0.0 | 0.00 | 0.00 | 0.00 | 61 | 1017.4 |
| 20260504004602 | 46 | 259 | 0.0 | 0.0 | 0.00 | 0.00 | 0.00 | 59 | 1017.5 |
| 20260504004059 | 46 | 256 | 0.0 | 0.0 | 0.00 | 0.00 | 0.00 | 58 | 1017.4 |
| 20260504003555 | 46 | 261 | 0.0 | 0.0 | 0.00 | 0.00 | 0.00 | 58 | 1017.3 |
| 20260504003052 | 46 | 262 | 0.0 | 0.0 | 0.00 | 0.00 | 0.00 | 60 | 1017.3 |
| 20260504002548 | 47 | 262 | 0.0 | 0.0 | 0.00 | 0.00 | 0.00 | 58 | 1017.1 |
| 20260504002046 | 47 | 256 | 0.0 | 0.0 | 0.00 | 0.00 | 0.00 | 56 | 1017.4 |
| 20260504001544 | 47 | 231 | 0.0 | 0.0 | 0.00 | 0.00 | 0.00 | 54 | 1017.4 |
| 20260504001039 | 48 | 261 | 0.0 | 0.0 | 0.00 | 0.00 | 0.00 | 58 | 1017.3 |
| 20260504000537 | 48 | 242 | 0.0 | 0.0 | 0.00 | 0.00 | 0.00 | 53 | 1017.0 |
| 20260504000034 | 49 | 264 | 1.0 | 1.0 | 0.00 | 0.00 | 0.00 | 53 | 1017.3 |
| 20260503235533 | 49 | 293 | 2.0 | 2.0 | 0.00 | 0.00 | 0.00 | 50 | 1017.4 |
| 20260503235029 | 50 | 273 | 2.0 | 3.0 | 0.00 | 0.00 | 0.00 | 53 | 1017.1 |
| 20260503234526 | 50 | 319 | 2.0 | 2.0 | 0.00 | 0.00 | 0.00 | 47 | 1017.3 |
| 20260503234025 | 50 | 277 | 1.0 | 2.0 | 0.00 | 0.00 | 0.00 | 45 | 1017.5 |
| 20260503233521 | 51 | 310 | 2.0 | 2.0 | 0.00 | 0.00 | 0.00 | 46 | 1017.1 |
| 20260503233017 | 53 | 226 | 0.0 | 2.0 | 0.00 | 0.00 | 0.00 | 39 | 1017.3 |
| 20260503232514 | 53 | 253 | 3.0 | 6.0 | 0.00 | 0.00 | 0.00 | 36 | 1017.6 |
| 20260503232012 | 53 | 7 | 0.0 | 1.0 | 0.00 | 0.00 | 0.00 | 36 | 1017.4 |
| 20260503231509 | 53 | 259 | 2.0 | 4.0 | 0.00 | 0.00 | 0.00 | 36 | 1017.3 |
| 20260503231006 | 53 | 292 | 4.0 | 6.0 | 0.00 | 0.00 | 0.00 | 36 | 1017.3 |
| 20260503230503 | 54 | 266 | 1.0 | 1.0 | 0.00 | 0.00 | 0.00 | 36 | 1017.3 |
| 20260503230000 | 55 | 280 | 3.0 | 4.0 | 0.00 | 0.00 | 0.00 | 37 | 1017.1 |
| 20260503225456 | 55 | 234 | 3.0 | 4.0 | 0.00 | 0.00 | 0.00 | 35 | 1017.4 |
| 20260503224952 | 55 | 289 | 2.0 | 3.0 | 0.00 | 0.00 | 0.00 | 37 | 1017.5 |
| 20260503224449 | 56 | 260 | 2.0 | 2.0 | 0.00 | 0.00 | 0.00 | 35 | 1017.5 |
| 20260503223947 | 56 | 328 | 2.0 | 4.0 | 0.00 | 0.00 | 0.00 | 34 | 1017.5 |
| 20260503223445 | 56 | 296 | 0.0 | 2.0 | 0.00 | 0.00 | 0.00 | 36 | 1017.4 |
| 20260503222940 | 57 | 279 | 3.0 | 4.0 | 0.00 | 0.00 | 0.00 | 33 | 1017.4 |
| 20260503222439 | 56 | 98 | 1.0 | 3.0 | 0.00 | 0.00 | 0.00 | 32 | 1017.4 |
| 20260503221937 | 57 | 307 | 3.0 | 9.0 | 0.00 | 0.00 | 0.00 | 32 | 1017.3 |
| 20260503221434 | 57 | 264 | 1.0 | 3.0 | 0.00 | 0.00 | 0.00 | 33 | 1017.4 |
| 20260503220931 | 57 | 132 | 0.0 | 1.0 | 0.00 | 0.00 | 0.00 | 32 | 1017.1 |
| 20260503220427 | 56 | 44 | 1.0 | 4.0 | 0.00 | 0.00 | 0.00 | 32 | 1017.3 |
| 20260503215925 | 57 | 248 | 4.0 | 8.0 | 0.00 | 0.00 | 0.00 | 35 | 1017.3 |
| 20260503215421 | 56 | 199 | 3.0 | 6.0 | 0.00 | 0.00 | 0.00 | 35 | 1017.1 |
| 20260503214919 | 57 | 192 | 5.0 | 8.0 | 0.00 | 0.00 | 0.00 | 32 | 1017.1 |
| 20260503214416 | 56 | 172 | 1.0 | 8.0 | 0.00 | 0.00 | 0.00 | 36 | 1017.0 |
| 20260503213914 | 55 | 313 | 4.0 | 7.0 | 0.00 | 0.00 | 0.00 | 34 | 1017.1 |
| 20260503213412 | 55 | 317 | 3.0 | 6.0 | 0.00 | 0.00 | 0.00 | 35 | 1017.1 |
| 20260503212908 | 56 | 31 | 6.0 | 11.0 | 0.00 | 0.00 | 0.00 | 33 | 1017.1 |
| 20260503212406 | 56 | 297 | 4.0 | 7.0 | 0.00 | 0.00 | 0.00 | 35 | 1017.3 |
| 20260503211903 | 58 | 181 | 4.0 | 4.0 | 0.00 | 0.00 | 0.00 | 35 | 1017.4 |
| 20260503211359 | 57 | 273 | 2.0 | 4.0 | 0.00 | 0.00 | 0.00 | 35 | 1017.6 |
| 20260503210854 | 57 | 212 | 3.0 | 4.0 | 0.00 | 0.00 | 0.00 | 33 | 1017.3 |
| 20260503210352 | 56 | 264 | 0.0 | 3.0 | 0.00 | 0.00 | 0.00 | 37 | 1017.4 |
| 20260503205847 | 55 | 62 | 3.0 | 4.0 | 0.00 | 0.00 | 0.00 | 33 | 1017.5 |
| 20260503205344 | 56 | 315 | 5.0 | 13.0 | 0.00 | 0.00 | 0.00 | 33 | 1017.5 |
| 20260503204840 | 56 | 243 | 0.0 | 4.0 | 0.00 | 0.00 | 0.00 | 36 | 1017.7 |
| 20260503204338 | 55 | 275 | 2.0 | 7.0 | 0.00 | 0.00 | 0.00 | 35 | 1017.6 |
| 20260503203835 | 56 | 280 | 4.0 | 6.0 | 0.00 | 0.00 | 0.00 | 33 | 1017.7 |
| 20260503203332 | 56 | 340 | 6.0 | 7.0 | 0.00 | 0.00 | 0.00 | 35 | 1017.8 |
| 20260503202829 | 56 | 259 | 4.0 | 8.0 | 0.00 | 0.00 | 0.00 | 34 | 1017.9 |
| 20260503202327 | 56 | 92 | 2.0 | 4.0 | 0.00 | 0.00 | 0.00 | 33 | 1017.9 |
| 20260503201825 | 55 | 266 | 2.0 | 10.0 | 0.00 | 0.00 | 0.00 | 34 | 1017.7 |
| 20260503201321 | 55 | 271 | 2.0 | 4.0 | 0.00 | 0.00 | 0.00 | 35 | 1018.0 |
| 20260503200819 | 56 | 344 | 2.0 | 7.0 | 0.00 | 0.00 | 0.00 | 32 | 1018.2 |
| 20260503200315 | 56 | 164 | 2.0 | 4.0 | 0.00 | 0.00 | 0.00 | 38 | 1018.3 |
| 20260503195813 | 56 | 191 | 5.0 | 8.0 | 0.00 | 0.00 | 0.00 | 35 | 1018.2 |
| 20260503195309 | 55 | 163 | 3.0 | 8.0 | 0.00 | 0.00 | 0.00 | 36 | 1018.3 |
| 20260503194806 | 55 | 5 | 3.0 | 6.0 | 0.00 | 0.00 | 0.00 | 34 | 1018.5 |
| 20260503194302 | 55 | 263 | 9.0 | 15.0 | 0.00 | 0.00 | 0.00 | 35 | 1018.7 |
| 20260503193758 | 54 | 19 | 4.0 | 9.0 | 0.00 | 0.00 | 0.00 | 34 | 1018.6 |
| 20260503193254 | 56 | 219 | 1.0 | 7.0 | 0.00 | 0.00 | 0.00 | 33 | 1018.5 |
| 20260503192750 | 55 | 220 | 4.0 | 4.0 | 0.00 | 0.00 | 0.00 | 37 | 1018.8 |
| 20260503192245 | 55 | 292 | 5.0 | 6.0 | 0.00 | 0.00 | 0.00 | 35 | 1018.6 |
| 20260503191743 | 54 | 30 | 6.0 | 10.0 | 0.00 | 0.00 | 0.00 | 35 | 1018.7 |
| 20260503191240 | 55 | 203 | 5.0 | 6.0 | 0.00 | 0.00 | 0.00 | 38 | 1018.7 |
| 20260503190736 | 55 | 267 | 5.0 | 8.0 | 0.00 | 0.00 | 0.00 | 37 | 1018.9 |
| 20260503190233 | 53 | 215 | 5.0 | 6.0 | 0.00 | 0.00 | 0.00 | 45 | 1018.9 |
| 20260503185731 | 55 | 225 | 5.0 | 10.0 | 0.00 | 0.00 | 0.00 | 35 | 1019.1 |